www.pogodaiklimat.ru

Погода и климат >> Архив погоды >> Антарктида >> Neumayer Station


ПОГОДА в Neumayer Station

  • Прогноз погоды в Neumayer Station
  • Монитор погоды в Neumayer Station
  • Климат города

АРХИВ ПОГОДЫ в Neumayer Station

Время (UTC), дата Ветер
(напр.,м/с)
 
Видим.   Явления Облачность Т
(С)
Тd
(С)
f
(%)
Тe
(С)
Тes
(С)
Комфортность P
(гПа)
Po
(гПа)
Тmin
(С)
Tmax
(С)
R
(мм)
R24
(мм)
S
(см)
00 18.05 В 11 200 м метель 3/3 1500 м
[Sc Cs]
-19.9 -24.3 68 -34 -34 опасность
обморожения
994.0 988.0 -28.6 -19.6
03 18.05 В 7 2000 м {метель} 9/0 2000 м
[Ac trans Cs]
-21.4 -26.2 65 -34 -34 опасность
обморожения
993.2 987.1
06 18.05 В 4 н/о н/о -23.6 -27.6 70 -34 -34 опасность
обморожения
992.6 986.5
09 18.05 В 4 20 км 1/0
[Ci fib]
-26.4 -30.4 69 -37 -37 опасность
обморожения
992.4 986.3
12 18.05 Ю 4 50 км 1/1 600 м
[Sc Cs]
-29.6 -33.7 67 -40 -40 опасность
обморожения
992.4 986.2 -30.3 -19.4
15 18.05 В 5 50 км 9/9 300 м
[St]
-26.5 -30.8 67 -38 -38 опасность
обморожения
992.5 986.4
18 18.05 ЮВ 5 2000 м 8/4 300 м
[St Cs]
-31.5 -35.0 71 -44 -44 опасность
обморожения
993.5 987.2
21 18.05 ЮВ 4 2000 м ледяные иглы 10/10 300 м
[St]
-26.5 -29.7 74 -37 -37 опасность
обморожения
994.4 988.2
00 19.05 Ю 3 2000 м 10/10 600 м
[St]
-29.3 -32.6 73 -38 -38 опасность
обморожения
995.3 989.1 -32.1 -24.0
03 19.05 В 13 <50 м слабый снег {метель} туман ?/? -19.4 -22.1 79 -34 -34 опасность
обморожения
996.2 990.3
06 19.05 В 18 <50 м снег {метель} туман ?/? -19.4 -22.3 78 -36 -36 опасность
обморожения
996.6 990.6
09 19.05 В 20 <50 м сильная метель {снег} 10/9 1000 м
[St]
-19.7 -23.0 75 -37 -37 опасность
обморожения
998.3 992.3
12 19.05 В 16 50 м сильная метель {снег} 9/9 600 м
[St]
-20.1 -23.4 75 -36 -36 опасность
обморожения
1000.1 994.1 -28.6 -18.8
15 19.05 В 13 1000 м метель 10/10 600 м
[St]
-18.5 -23.0 68 -33 -33 опасность
обморожения
1001.6 995.6
18 19.05 В 11 1000 м метель 10/10 1000 м
[St]
-19.0 -23.4 68 -33 -33 опасность
обморожения
1002.8 996.7
21 19.05 В 9 2000 м метель 10/10 1000 м
[St]
-19.2 -24.8 61 -32 -32 опасность
обморожения
1004.1 998.1
00 20.05 В 7 2000 м позёмок {метель} 5/5 1000 м
[Sc]
-21.4 -27.2 59 -34 -34 опасность
обморожения
1004.5 998.4 -21.6 -18.5
03 20.05 В 6 н/о н/о -22.4 -28.5 57 -34 -34 опасность
обморожения
1004.6 998.5
06 20.05 ЮВ 3 2000 м позёмок 10/0 2000 м
[Ac As]
-23.7 -28.3 66 -32 -32 опасность
обморожения
1004.8 998.7
09 20.05 Ю 3 10 км осадки на расстоянии 4/0 2000 м
[Ac trans]
-26.9 -31.1 67 -36 -36 опасность
обморожения
1005.3 999.0
12 20.05 Ю 4 20 км 9/9 1500 м
[Sc]
-26.5 -30.9 66 -36 -36 опасность
обморожения
1004.8 998.6 -28.3 -19.5
15 20.05 Ю 5 20 км 4/4 1500 м
[Sc]
-27.8 -32.5 64 -39 -39 опасность
обморожения
1004.8 998.6
18 20.05 Ю 7 2000 м 3/0 2000 м
[Ac trans]
-28.8 -33.9 61 -43 -43 опасность
обморожения
1004.0 997.7
21 20.05 Ю 5 2000 м 1/1 1500 м
[Sc]
-30.5 -35.2 63 -43 -43 опасность
обморожения
1003.7 997.4
00 21.05 Ю 3 2000 м ясно -33.8 -37.9 66 -44 -44 опасность
обморожения
1003.7 997.3 -34.1 -24.7
03 21.05 Ю 3 н/о н/о -34.3 -38.8 64 -44 -44 опасность
обморожения
1003.7 997.3
06 21.05 Ю 6 2000 м ясно -34.0 -38.7 62 -49 -49 опасность
обморожения
1003.5 997.1
09 21.05 Ю 6 2000 м 1/1 1500 м
[Sc]
-32.0 -37.1 60 -46 -46 опасность
обморожения
1003.8 997.4
12 21.05 Ю 7 50 км 1/1 1500 м
[Sc]
-29.5 -34.6 61 -44 -44 опасность
обморожения
1003.7 997.4 -35.0 -28.9
15 21.05 Ю 7 50 км ясно -29.4 -34.0 64 -44 -44 опасность
обморожения
1003.2 996.9
18 21.05 Ю 8 2000 м ясно -28.0 -33.2 61 -43 -43 опасность
обморожения
1002.6 996.3
21 21.05 ЮЗ 7 2000 м ясно -29.2 -34.3 61 -44 -44 опасность
обморожения
1000.8 994.6
00 22.05 ЮЗ 6 2000 м ясно -32.0 -36.8 62 -46 -46 опасность
обморожения
997.5 991.2 -32.0 -26.8
03 22.05 З 7 н/о н/о -30.5 -33.7 73 -45 -45 опасность
обморожения
992.8 986.6
06 22.05 Ю 5 2000 м в посл. час туман ясно -29.7 -33.0 73 -42 -42 опасность
обморожения
990.1 983.9
09 22.05 В 4 10 км 1/0
[Cs]
-34.1 -37.2 73 -46 -46 опасность
обморожения
988.7 982.4
12 22.05 Ю 6 50 км 1/0
[Cs]
-34.3 -38.3 67 -49 -49 опасность
обморожения
986.6 980.3 -34.4 -25.7
15 22.05 В 4 20 км 9/9 300 м
[St]
-25.7 -28.9 74 -35 -35 опасность
обморожения
984.1 978.0
18 22.05 В 6 2000 м слабый снег 10/10 300 м
[Frnb]
-23.8 -27.0 75 -35 -35 опасность
обморожения
981.3 975.3
21 22.05 В 8 1000 м слабый снег туман 10/10 200 м
[Frnb]
-24.6 -28.0 73 -39 -39 опасность
обморожения
979.1 973.1
00 23.05 В 7 2000 м ледяные иглы {снег, туман} 10/10 200 м
[St]
-23.9 -27.2 74 -37 -37 опасность
обморожения
978.2 972.2 -35.8 -22.6
03 23.05 В 6 н/о н/о -20.9 -24.0 76 -32 -32 опасность
обморожения
978.8 972.9
06 23.05 В 6 2000 м 10/10 600 м
[St]
-20.0 -23.9 71 -31 -31 опасность
обморожения
980.6 974.7
09 23.05 ЮВ 3 4000 м 1/1 1000 м
[Sc]
-29.4 -33.1 70 -39 -39 опасность
обморожения
982.6 976.4
12 23.05 В 2 50 км ясно -31.9 -36.1 66 -40 -40 опасность
обморожения
983.6 977.4 -32.5 -19.8
15 23.05 В 4 50 км 1/0
[Cs]
-25.7 -32.5 53 -36 -36 опасность
обморожения
984.5 978.4
18 23.05 ЮВ 3 4000 м 3/0
[Cs]
-32.6 -37.4 62 -43 -43 опасность
обморожения
985.4 979.2
21 23.05 В 2 2000 м 10/0
[Cs]
-31.1 -35.8 63 -37 -37 опасность
обморожения
985.6 979.4
00 24.05 ЮВ 3 2000 м 10/0
[Cs]
-30.3 -34.3 68 -40 -40 опасность
обморожения
985.9 979.7 -34.3 -22.6
03 24.05 ЮВ 5 н/о н/о -29.8 -34.1 66 -42 -42 опасность
обморожения
986.0 979.8
06 24.05 В 9 2000 м осадки на расстоянии {снег} 10/10 600 м
[Frnb]
-15.3 -26.9 36 -27 -27 985.3 979.5
09 24.05 В 7 4000 м 9/6 200 м
[Sc Ac trans]
-16.6 -19.9 76 -27 -27 986.3 980.4
12 24.05 В 6 20 км 9/3 300 м
[Sc Ac lent]
-16.4 -20.3 72 -26 -26 987.3 981.4 -32.5 -14.9
15 24.05 В 3 20 км 3/1 1500 м
[Sc Ac As]
-16.9 -22.9 60 -23 -23 987.2 981.3
18 24.05 ЮЗ 2 4000 м 9/0 2000 м
[Ac trans]
-19.8 -22.5 79 -25 -25 987.5 981.5
21 24.05 З 5 4000 м 9/0 2000 м
[Ac trans]
-19.9 -23.1 76 -30 -30 986.9 980.9

 

Местоположение метеостанции Neumayer Station (Антарктида): широта -70.66 долгота -8.25 высота над уровнем моря 50 м.

В архиве по умолчанию представлена погода в Neumayer Station за последнюю неделю. Архивные данные за месяц целиком и за предыдущие месяцы, начиная с января 2011 года, Вы можете получить, выбрав интересующий диапазон дат из раскрывающегося списка и нажав кнопку "Ввод!".


*Определитесь, кто Вы:
робот инопланетянин человек

Внимание! Время в таблицах - всемирное. Для получения местного времени необходимо прибавить поправку, которая в Neumayer Station равна 0 ч.

Смотрите также архив погоды в соседних городах и на ближайших метеорологических станциях:

Погода в Soerasen (Антарктида) (102 км)
Погода в SANAE (Антарктида) (227 км)
Погода в Nordenskiold Base (Антарктида) (320 км)
Погода в Troll (Антарктида) (406 км)
Погода в Kohnen Ep9 (Антарктида) (552 км)
Погода в Maitri (Антарктида) (732 км)
Погода в Novolazarevskaja (Антарктида) (734 км)
Погода в Halley (Антарктида) (797 км)
Погода в Base Belgrano Ii (Антарктида) (1110 км)
Погода в Limbert Aws (Антарктида) (1666 км)

Пояснения к столбцам:

Ветер - указаны скорость ветра в м/с - средняя за 10 мин, порывы в срок и между сроками (в фигурных скобках) и направление, откуда дует ветер: С - северный, СВ - северо-восточный, В - восточный, ЮВ - юго-восточный, Ю - южный, ЮЗ - юго-западный, З - западный, СЗ - северо-западный.
Видимость - горизонтальная дальность видимости в метрах или километрах. При видимости от 1 до 10 км при отсутствии осадков обычно наблюдается дымка, при ухудшении видимости до 1 км и менее - туман. В сухую погоду видимость может ухудшаться дымом, пылью или мглою.
Явления - указаны атмосферные явления, наблюдавшиеся в срок или в последний час перед сроком; фигурными скобками обозначены явления, наблюдавшиеся между сроками (за 1-3 часа до срока); квадратными скобками обозначены град или гололедные отложения с указанием их диаметра в мм.
Облачность - указаны через наклонную черту общая и нижняя облачность в баллах и высота нижней границы облаков в метрах; квадратными скобками обозначены формы облаков: Ci - перистые, Cs - перисто-слоистые, Cc - перисто-кучевые, Ac - высококучевые, As - высокослоистые, Sc - слоисто-кучевые, Ns - слоисто-дождевые, Cu - кучевые, Cb - кучево-дождевые. Подробнее классификацию облаков см. в Атласе облаков (PDF).
T - Температура воздуха - температура, измеренная на высоте 2 м над землей.
Td - Температура точки росы - температура, при понижении до которой содержащийся в воздухе водяной пар достигнет насыщения.
f - Относительная влажность воздуха - влажноcть воздуха, измеренная на высоте 2 м над землей.
Te - Эффективная температура - температура, которую ощущает одетый по сезону человек в тени. Характеристика душности погоды. При расчете учитывается влияние влажности воздуха и скорости ветра на теплоощущения человека.
Tes - Эффективная температура на солнце - температура, которую ощущает человек, с поправкой на солнечный нагрев. Характеристика знойности погоды. Зависит от высоты солнца над горизонтом, облачности и скорости ветра. Ночью, в пасмурную погоду, а также при ветре 12 м/с и более поправка равна нулю.
P - Атмосферное давление - приведенное к уровню моря атмосферное давление.
Po - Атмосферное давление - измеренное на уровне метеостанции атмосферное давление.
Tmin - Минимальная температура - минимум температуры воздуха на высоте 2 м над землей.
Tmax - Максимальная температура - максимум температуры воздуха на высоте 2 м над землей.
R - Количество осадков - Количество выпавших осадков за период времени, мм. При наведении курсора мыши на число - период времени, за который выпало указанное количество осадков.
R24 - Количество осадков - Количество выпавших осадков за 24 часа, мм.
S - Снежный покров - Высота снежного покрова, см. При наведении курсора мыши на число - состояние снежного покрова и степень покрытия местности в баллах.